Back to catalog

STARLINK-34697

AliveCommunicationsVLEO
NORAD 64791·PAYLOAD·🇺🇸 United States

Launched Jul 16, 2025 from Vandenberg Space Force Base

Loading…

Next Passes (next 24 hours)

TLE

FreshSource: CelesTrak SupGP

Epoch: Sep 15, 2026, 02:51 UTC

1 64791C 25150B   26258.11923611  .00037224  00000+0  31200-2 0  2580
2 64791  70.0029  16.7454 0003139 269.4228  94.7548 14.98305536    15

Track STARLINK-34697 in real time with AllMySat

Download on the App Store